Regional Weather Roundup
Issued by NWS

Home | Current Version | Previous Version | Text Only | Print | Product List | Glossary Off
Versions: 1 2 3 4 5 6 7 8 9 10 11 12 13 14 15 16 17 18 19 20 21 22 23 24 25 26 27 28 29 30 31 32 33 34 35 36 37 38 39 40 41 42 43 44 45 46 47 48 49 50

000
ASUS43 KLSX 021157
RWRMO

WEATHER SUMMARY FOR MISSOURI
NATIONAL WEATHER SERVICE SPRINGFIELD MO
600 AM CST FRI DEC 02 2016

NOTE: "FAIR" INDICATES FEW OR NO CLOUDS BELOW 12,000 FEET WITH NO
       SIGNIFICANT WEATHER AND/OR OBSTRUCTIONS TO VISIBILITY.
       CURRENT SKY AND/OR WEATHER CONDITIONS ARE NOT AVAILABLE FOR
       CHILLICOTHE AND FARMINGTON.

MOZ001>031-035>038-043-044-053-054-021300-
...NORTHERN AND WESTERN MISSOURI...

CITY           SKY/WX    TMP DP  RH WIND       PRES   REMARKS
KANSAS CTY INT CLEAR     28  22  78 SW3       30.19R
6HR MIN TEMP:  24; 6HR MAX TEMP:  36;

LEE`S SUMMIT   CLOUDY    34  24  67 CALM      30.20R
6HR MIN TEMP:  29; 6HR MAX TEMP:  34;

ST JOSEPH      FOG       20  20 100 NE3       30.21R VSB 1/2
6HR MIN TEMP:  20; 6HR MAX TEMP:  24;

CHILLICOTHE      N/A     22  19  89 CALM      30.22R
6HR MIN TEMP:  21; 6HR MAX TEMP:  26;


$$
MOZ066>068-077>081-088>096-101>105-021300-
...SOUTHWEST MISSOURI...

CITY           SKY/WX    TMP DP  RH WIND       PRES   REMARKS
SPRINGFIELD    CLOUDY    38  27  64 CALM      30.17R
6HR MIN TEMP:  35; 6HR MAX TEMP:  39;

JOPLIN         PTCLDY    38  27  64 E6        30.17R
6HR MIN TEMP:  38; 6HR MAX TEMP:  41;


$$
MOZ032>034-039>042-045>050-055>058-069>072-021300-
...CENTRAL MISSOURI...

CITY           SKY/WX    TMP DP  RH WIND       PRES   REMARKS
COLUMBIA       NOT AVBL
JEFFERSON CITY CLOUDY    26  24  92 CALM      30.22R
6HR MIN TEMP:  23; 6HR MAX TEMP:  27;

ROLLA          MOCLDY    31  25  78 SW5       30.18R WCI  26
6HR MIN TEMP:  24; 6HR MAX TEMP:  35;

SEDALIA        CLOUDY    34  26  72 SW3       30.21R
6HR MIN TEMP:  26; 6HR MAX TEMP:  35;

WARRENSBURG    MOCLDY    30  27  86 CALM      30.20R

$$
MOZ051-052-059>065-021300-
...EAST CENTRAL MISSOURI...

CITY           SKY/WX    TMP DP  RH WIND       PRES   REMARKS
ST LOUIS INTL  CLEAR     30  24  78 CALM      30.20R
6HR MIN TEMP:  29; 6HR MAX TEMP:  34;


$$
MOZ072>076-082>087-097>100-106>115-021300-
...SOUTH CENTRAL AND SOUTHEAST MISSOURI...

CITY           SKY/WX    TMP DP  RH WIND       PRES   REMARKS
CAPE GIRARDEAU CLEAR     29  27  92 CALM      30.20R
6HR MIN TEMP:  28; 6HR MAX TEMP:  32;

POPLAR BLUFF   CLEAR     30  27  88 CALM      30.21R
6HR MIN TEMP:  29; 6HR MAX TEMP:  33;

WEST PLAINS    CLEAR     30  24  78 CALM      30.19R
6HR MIN TEMP:  29; 6HR MAX TEMP:  36;


$$



USA.gov is the U.S. government's official web portal to all federal, state and local government web resources and services.